Weather History for Menomonie, WI

Change the Weather History Date:

Tuesday, May 14, 2013

  Actual Average (KEAU) Record (KEAU)
Temperature  
Mean Temperature 68 °F 57 °F  
Max Temperature 91 °F 69 °F 95 °F (1932)
Min Temperature 44 °F 45 °F 25 °F (1895)
Degree Days  
Heating Degree Days 0 9  
Month to date heating degree days 146  
Since 1 July heating degree days 7787  
Cooling Degree Days 2 1  
Month to date cooling degree days 8  
Year to date cooling degree days 12  
Growing Degree Days 18 (Base 50)    
Moisture  
Dew Point 41 °F    
Average Humidity 45    
Maximum Humidity 87    
Minimum Humidity 14    
Precipitation  
Precipitation 0.00 in 0.10 in 2.00 in (1905)
Month to date precipitation 1.50  
Year to date precipitation 7.68  
Snow  
Snow 0.00 in 0.00 in 0.00 in ()
Month to date snowfall 0.2  
Since 1 July snowfall 47.0  
Snow Depth -    
Sea Level Pressure  
Sea Level Pressure 29.62 in    
Wind  
Wind Speed 7 mph (SE)    
Max Wind Speed 21 mph    
Max Gust Speed 28 mph    
Visibility 10 miles    
Events Rain    
T = Trace of Precipitation, MM = Missing Value Source: NWS Daily Summary

Daily Weather History Graph

Daily Weather History Graph

Search for Another Location

Airport:

Trip Planner

Search our weather history database for the weather conditions in past years. The results will help you decide how hot, cold, wet, or windy it might be!

Date:

Astronomy

May. 14, 2013 Rise Set
Actual Time 5:39 AM CDT 8:28 PM CDT
Civil Twilight 5:05 AM CDT 9:02 PM CDT
Nautical Twilight 4:22 AM CDT 9:46 PM CDT
Astronomical Twilight 3:32 AM CDT 10:37 PM CDT
Moon 9:20 AM CDT (5/14) No Moon Set
Length of Visible Light 15h 57m
Length of Day
14h 49m
Waxing Crescent, 19% of the Moon is Illuminated
May 14
Waxing Crescent
May 17
First Quarter
May 24
Full
May 31
Last Quarter
Jun 8
New

Hourly Weather History & Observations

Time (CDT) Temp. Windchill Dew Point Humidity Pressure Visibility Wind Dir Wind Speed Gust Speed Precip Events Conditions
12:15 AM 51.8 °F - 37.4 °F 58% 29.71 in 10.0 mi ESE 5.8 mph - N/A   Clear
12:35 AM 50.0 °F - 37.4 °F 62% 29.70 in 10.0 mi ESE 5.8 mph - N/A   Clear
12:55 AM 50.0 °F - 37.4 °F 62% 29.69 in 10.0 mi ESE 6.9 mph - N/A   Clear
1:15 AM 50.0 °F - 37.4 °F 62% 29.68 in 10.0 mi ESE 6.9 mph - N/A   Clear
1:35 AM 50.0 °F - 37.4 °F 62% 29.68 in 10.0 mi ESE 5.8 mph - N/A   Clear
1:55 AM 50.0 °F - 39.2 °F 66% 29.67 in 10.0 mi ESE 6.9 mph - N/A   Clear
2:15 AM 50.0 °F - 39.2 °F 66% 29.67 in 10.0 mi ENE 3.5 mph - N/A   Clear
2:35 AM 46.4 °F 45.2 °F 41.0 °F 81% 29.67 in 10.0 mi East 3.5 mph - N/A   Clear
2:55 AM 46.4 °F 45.2 °F 41.0 °F 81% 29.67 in 10.0 mi ENE 3.5 mph - N/A   Clear
3:15 AM 46.4 °F 45.2 °F 39.2 °F 76% 29.67 in 10.0 mi East 3.5 mph - N/A   Clear
3:35 AM 46.4 °F - 37.4 °F 71% 29.68 in 10.0 mi Calm Calm - N/A   Clear
3:55 AM 46.4 °F - 39.2 °F 76% 29.68 in 10.0 mi Calm Calm - N/A   Clear
4:15 AM 46.4 °F - 37.4 °F 71% 29.68 in 10.0 mi Calm Calm - N/A   Clear
4:35 AM 46.4 °F - 37.4 °F 71% 29.67 in 10.0 mi Calm Calm - N/A   Clear
4:55 AM 44.6 °F - 39.2 °F 81% 29.68 in 10.0 mi Calm Calm - N/A   Clear
5:15 AM 44.6 °F - 39.2 °F 81% 29.68 in 10.0 mi Calm Calm - N/A   Clear
5:35 AM 44.6 °F - 37.4 °F 76% 29.68 in 10.0 mi Calm Calm - N/A   Clear
5:55 AM 44.6 °F - 37.4 °F 76% 29.68 in 10.0 mi Calm Calm - N/A   Clear
6:15 AM 44.6 °F - 39.2 °F 81% 29.68 in 10.0 mi Calm Calm - N/A   Clear
6:35 AM 44.6 °F - 41.0 °F 87% 29.69 in 10.0 mi Calm Calm - N/A   Clear
6:55 AM 46.4 °F - 41.0 °F 81% 29.68 in 10.0 mi Calm Calm - N/A   Clear
7:15 AM 50.0 °F - 42.8 °F 76% 29.68 in 10.0 mi Calm Calm - N/A   Clear
7:35 AM 51.8 °F - 42.8 °F 71% 29.68 in 10.0 mi Calm Calm - N/A   Clear
7:55 AM 53.6 °F - 44.6 °F 72% 29.66 in 10.0 mi Calm Calm - N/A   Clear
8:15 AM 57.2 °F - 46.4 °F 67% 29.67 in 10.0 mi Calm Calm - N/A   Clear
8:35 AM 60.8 °F - 46.4 °F 59% 29.68 in 10.0 mi ENE 4.6 mph - N/A   Clear
8:55 AM 62.6 °F - 46.4 °F 55% 29.70 in 10.0 mi Calm Calm - N/A   Clear
9:15 AM 64.4 °F - 48.2 °F 56% 29.69 in 10.0 mi Calm Calm - N/A   Clear
9:35 AM 68.0 °F - 48.2 °F 49% 29.69 in 10.0 mi ENE 3.5 mph - N/A   Clear
10:15 AM 73.4 °F - 46.4 °F 38% 29.68 in 10.0 mi SE 5.8 mph - N/A   Clear
10:35 AM 73.4 °F - 48.2 °F 41% 29.69 in 10.0 mi East 5.8 mph - N/A   Clear
10:55 AM 73.4 °F - 46.4 °F 38% 29.72 in 10.0 mi Calm Calm - N/A   Clear
11:15 AM 71.6 °F - 46.4 °F 41% 29.75 in 10.0 mi North 9.2 mph - N/A   Mostly Cloudy
11:35 AM 69.8 °F - 50.0 °F 49% 29.78 in 10.0 mi North 10.4 mph - N/A Rain Light Rain
11:55 AM 69.8 °F - 51.8 °F 53% 29.76 in 10.0 mi NNE 10.4 mph - N/A Rain Light Rain
12:15 PM 71.6 °F - 51.8 °F 50% 29.74 in 10.0 mi East 6.9 mph - N/A   Clear
12:35 PM 71.6 °F - 51.8 °F 50% 29.68 in 10.0 mi East 15.0 mph - N/A   Scattered Clouds
12:55 PM 77.0 °F - 50.0 °F 39% 29.65 in 10.0 mi ESE 18.4 mph - N/A   Scattered Clouds
1:15 PM 78.8 °F - 46.4 °F 32% 29.63 in 10.0 mi ESE 17.3 mph 24.2 mph N/A   Clear
1:35 PM 80.6 °F - 42.8 °F 26% 29.60 in 10.0 mi ESE 19.6 mph 24.2 mph N/A   Clear
1:55 PM 82.4 °F - 41.0 °F 23% 29.58 in 10.0 mi ESE 20.7 mph 26.5 mph N/A   Clear
2:15 PM 82.4 °F - 41.0 °F 23% 29.56 in 10.0 mi ESE 19.6 mph 23.0 mph N/A   Clear
2:35 PM 84.2 °F - 41.0 °F 22% 29.56 in 10.0 mi SE 19.6 mph 23.0 mph N/A   Clear
2:55 PM 86.0 °F - 42.8 °F 22% 29.57 in 10.0 mi SE 11.5 mph 19.6 mph N/A   Clear
3:15 PM 87.8 °F - 41.0 °F 19% 29.55 in 10.0 mi SSE 16.1 mph 21.9 mph N/A   Clear
3:35 PM 87.8 °F - 41.0 °F 19% 29.53 in 10.0 mi SSE 18.4 mph 25.3 mph N/A   Clear
3:55 PM 87.8 °F - 42.8 °F 21% 29.51 in 10.0 mi SSE 15.0 mph 23.0 mph N/A   Clear
4:35 PM 89.6 °F - 44.6 °F 21% 29.48 in 10.0 mi SSE 12.7 mph 20.7 mph N/A   Clear
4:55 PM 89.6 °F - 44.6 °F 21% 29.48 in 10.0 mi SSE 12.7 mph - N/A   Clear
5:15 PM 89.6 °F - 44.6 °F 21% 29.48 in 10.0 mi South 10.4 mph - N/A   Clear
5:35 PM 91.4 °F - 44.6 °F 20% 29.46 in 10.0 mi South 13.8 mph 19.6 mph N/A   Clear
5:55 PM 91.4 °F - 46.4 °F 21% 29.46 in 10.0 mi SSE 8.1 mph - N/A   Clear
6:15 PM 91.4 °F - 46.4 °F 21% 29.45 in 10.0 mi SSE 9.2 mph - N/A   Clear
6:35 PM 91.4 °F - 46.4 °F 21% 29.45 in 10.0 mi South 5.8 mph - N/A   Clear
7:15 PM 89.6 °F - 44.6 °F 21% 29.46 in 10.0 mi West 5.8 mph - N/A   Clear
7:35 PM 89.6 °F - 44.6 °F 21% 29.46 in 10.0 mi West 9.2 mph 20.7 mph N/A   Clear
7:55 PM 89.6 °F - 41.0 °F 18% 29.46 in 10.0 mi West 13.8 mph 20.7 mph N/A   Clear
8:15 PM 87.8 °F - 39.2 °F 18% 29.47 in 10.0 mi West 11.5 mph 20.7 mph N/A   Clear
8:35 PM 86.0 °F - 35.6 °F 17% 29.48 in 10.0 mi West 15.0 mph - N/A   Clear
8:55 PM 84.2 °F - 32.0 °F 15% 29.50 in 10.0 mi West 18.4 mph 27.6 mph N/A   Clear
9:15 PM 82.4 °F - 28.4 °F 14% 29.52 in 10.0 mi West 17.3 mph - N/A   Clear
9:35 PM 80.6 °F - 30.2 °F 16% 29.54 in 10.0 mi West 11.5 mph - N/A   Clear
9:55 PM 78.8 °F - 28.4 °F 16% 29.56 in 10.0 mi West 17.3 mph 21.9 mph N/A   Clear
10:35 PM 75.2 °F - 32.0 °F 21% 29.58 in 10.0 mi West 13.8 mph 21.9 mph N/A   Clear
11:15 PM 73.4 °F - 32.0 °F 22% 29.60 in 10.0 mi West 12.7 mph 20.7 mph N/A   Clear
11:35 PM 71.6 °F - 33.8 °F 25% 29.60 in 10.0 mi West 15.0 mph 21.9 mph N/A   Clear
11:55 PM 71.6 °F - 35.6 °F 27% 29.61 in 10.0 mi West 12.7 mph 19.6 mph N/A   Clear